When you browse on this site, cookies collect data to enhance your experience and personalize the content and advertising you see.
Visit our Privacy Policy to learn more. By continuing to use the site, you agree to this use of cookies and data.
  • In Hungary
  • List of Countries
  • For 7 days
  • Water Temperature
  • Satellite Maps
  • Weather Map
  • News
  • Weather Widgets
  • user-avatar
    Login

    Hourly Weather Leipzig

    Today, 17 July, Wednesday

    Time Temperature Precipitation Wind Pressure Humidity
    00:00 +16°C° 0 mm 2 mps 751 mmHg 83%
    01:00 +16°C° 0 mm 2 mps 751 mmHg 83%
    02:00 +15°C° 0 mm 2 mps 751 mmHg 85%
    03:00 +15°C° 0 mm 2 mps 751 mmHg 87%
    04:00 +15°C° 0 mm 2 mps 751 mmHg 89%
    05:00 +15°C° 0 mm 2 mps 751 mmHg 87%
    06:00 +16°C° 0 mm 2 mps 751 mmHg 85%
    07:00 +16°C° 0 mm 2 mps 751 mmHg 82%
    08:00 +16°C° 0 mm 2 mps 751 mmHg 79%
    09:00 +17°C° 0 mm 2 mps 751 mmHg 76%
    10:00 +18°C° 0 mm 2 mps 751 mmHg 73%
    11:00 +18°C° 0 mm 2 mps 750 mmHg 70%
    12:00 +19°C° 0 mm 2 mps 750 mmHg 67%
    13:00 +19°C° 0 mm 2 mps 750 mmHg 64%
    14:00 +20°C° 0 mm 2 mps 750 mmHg 62%
    15:00 +20°C° 0 mm 2 mps 750 mmHg 61%
    16:00 +21°C° 0 mm 2 mps 750 mmHg 59%
    17:00 +20°C° 0 mm 2 mps 749 mmHg 61%
    18:00 +20°C° 0 mm 2 mps 749 mmHg 64%
    19:00 +21°C° 0 mm 1 mps 749 mmHg 66%
    20:00 +19°C° 0 mm 1 mps 749 mmHg 71%
    21:00 +18°C° 0 mm 1 mps 749 mmHg 76%
    22:00 +15°C° 0 mm 1 mps 750 mmHg 81%
    23:00 +14°C° 0 mm 1 mps 750 mmHg 83%

    Tomorrow, 18 July, Thursday

    Time Temperature Precipitation Wind Pressure Humidity
    00:00 +14°C° 0 mm 1 mps 749 mmHg 85%
    01:00 +13°C° 0 mm 0 mps 749 mmHg 86%
    02:00 +12°C° 0 mm 0 mps 749 mmHg 87%
    03:00 +12°C° 0 mm 0 mps 749 mmHg 88%
    04:00 +12°C° 0 mm 0 mps 749 mmHg 89%
    05:00 +14°C° 0 mm 1 mps 749 mmHg 84%
    06:00 +16°C° 0 mm 1 mps 749 mmHg 78%
    07:00 +18°C° 0 mm 1 mps 749 mmHg 73%
    08:00 +20°C° 0 mm 1 mps 749 mmHg 67%
    09:00 +22°C° 0 mm 1 mps 749 mmHg 62%
    10:00 +23°C° 0 mm 1 mps 749 mmHg 56%
    11:00 +25°C° 0 mm 1 mps 749 mmHg 51%
    12:00 +26°C° 0 mm 1 mps 749 mmHg 47%
    13:00 +27°C° 0 mm 1 mps 748 mmHg 43%
    14:00 +27°C° 0 mm 1 mps 748 mmHg 42%
    15:00 +27°C° 0 mm 1 mps 748 mmHg 42%
    16:00 +27°C° 0 mm 1 mps 748 mmHg 42%
    17:00 +26°C° 0 mm 1 mps 748 mmHg 46%
    18:00 +25°C° 0 mm 1 mps 748 mmHg 51%
    19:00 +24°C° 0 mm 1 mps 748 mmHg 55%
    20:00 +23°C° 0 mm 1 mps 748 mmHg 58%
    21:00 +22°C° 0 mm 1 mps 748 mmHg 61%
    22:00 +21°C° 0 mm 1 mps 749 mmHg 64%
    23:00 +19°C° 0 mm 2 mps 749 mmHg 67%

    Day after tomorrow, 19 July, Friday

    Time Temperature Precipitation Wind Pressure Humidity
    00:00 +19°C° 0 mm 2 mps 749 mmHg 70%
    01:00 +18°C° 0 mm 2 mps 748 mmHg 73%
    02:00 +18°C° 0.1 mm 2 mps 749 mmHg 76%
    03:00 +18°C° 0.1 mm 2 mps 749 mmHg 78%
    04:00 +18°C° 0.1 mm 2 mps 749 mmHg 81%
    05:00 +18°C° 0.3 mm 2 mps 749 mmHg 81%
    06:00 +18°C° 0.3 mm 2 mps 749 mmHg 81%
    07:00 +19°C° 0.3 mm 2 mps 749 mmHg 82%
    08:00 +20°C° 0.2 mm 2 mps 750 mmHg 76%
    09:00 +23°C° 0.2 mm 2 mps 750 mmHg 69%
    10:00 +24°C° 0.2 mm 2 mps 750 mmHg 63%
    11:00 +25°C° 0.1 mm 3 mps 750 mmHg 58%
    12:00 +26°C° 0.1 mm 3 mps 750 mmHg 53%
    13:00 +27°C° 0.1 mm 3 mps 750 mmHg 47%
    14:00 +27°C° 0 mm 3 mps 749 mmHg 46%
    15:00 +28°C° 0 mm 3 mps 749 mmHg 46%
    16:00 +28°C° 0 mm 2 mps 749 mmHg 45%
    17:00 +27°C° 0 mm 2 mps 749 mmHg 50%
    18:00 +26°C° 0 mm 2 mps 749 mmHg 55%
    19:00 +25°C° 0 mm 1 mps 750 mmHg 60%
    20:00 +24°C° 0.1 mm 1 mps 750 mmHg 66%
    21:00 +22°C° 0.1 mm 1 mps 750 mmHg 73%
    22:00 +20°C° 0.1 mm 1 mps 750 mmHg 79%
    23:00 +20°C° 0 mm 1 mps 750 mmHg 81%

    20 July, Saturday

    Time Temperature Precipitation Wind Pressure Humidity
    00:00 +19°C° 0 mm 1 mps 750 mmHg 83%
    01:00 +18°C° 0 mm 2 mps 750 mmHg 85%
    02:00 +17°C° 0 mm 2 mps 750 mmHg 86%
    03:00 +17°C° 0 mm 2 mps 750 mmHg 87%
    04:00 +17°C° 0 mm 2 mps 750 mmHg 88%
    05:00 +18°C° 0 mm 2 mps 750 mmHg 84%
    06:00 +19°C° 0 mm 2 mps 750 mmHg 79%
    07:00 +20°C° 0 mm 2 mps 750 mmHg 75%
    08:00 +23°C° 0 mm 2 mps 751 mmHg 69%
    09:00 +25°C° 0 mm 3 mps 751 mmHg 63%
    10:00 +27°C° 0 mm 3 mps 751 mmHg 57%
    11:00 +27°C° 0.1 mm 3 mps 751 mmHg 54%
    12:00 +28°C° 0.1 mm 3 mps 750 mmHg 52%
    13:00 +29°C° 0.1 mm 3 mps 750 mmHg 49%
    14:00 +29°C° 0.1 mm 3 mps 750 mmHg 49%
    15:00 +29°C° 0.1 mm 2 mps 750 mmHg 48%
    16:00 +29°C° 0.1 mm 1 mps 750 mmHg 48%
    17:00 +28°C° 0.1 mm 1 mps 750 mmHg 54%
    18:00 +27°C° 0.1 mm 2 mps 750 mmHg 60%
    19:00 +26°C° 0.1 mm 2 mps 750 mmHg 66%
    20:00 +25°C° 0.2 mm 2 mps 750 mmHg 70%
    21:00 +23°C° 0.2 mm 2 mps 751 mmHg 74%
    22:00 +21°C° 0.2 mm 2 mps 751 mmHg 79%
    23:00 +20°C° 0 mm 2 mps 751 mmHg 80%

    21 July, Sunday

    Time Temperature Precipitation Wind Pressure Humidity
    00:00 +20°C° 0 mm 2 mps 751 mmHg 81%
    01:00 +19°C° 0 mm 2 mps 751 mmHg 83%
    02:00 +19°C° 0.1 mm 3 mps 751 mmHg 84%
    03:00 +19°C° 0.1 mm 3 mps 751 mmHg 86%
    04:00 +18°C° 0.1 mm 3 mps 751 mmHg 87%
    05:00 +20°C° 0 mm 3 mps 752 mmHg 83%
    06:00 +21°C° 0 mm 4 mps 752 mmHg 79%
    07:00 +22°C° 0 mm 4 mps 752 mmHg 75%
    08:00 +23°C° 0.1 mm 5 mps 752 mmHg 70%
    09:00 +25°C° 0.1 mm 5 mps 753 mmHg 65%
    10:00 +26°C° 0.1 mm 6 mps 753 mmHg 60%
    11:00 +27°C° 0 mm 6 mps 753 mmHg 55%
    12:00 +27°C° 0 mm 5 mps 753 mmHg 51%
    13:00 +28°C° 0 mm 5 mps 753 mmHg 47%
    14:00 +28°C° 0 mm 5 mps 753 mmHg 49%
    15:00 +27°C° 0 mm 5 mps 754 mmHg 50%
    16:00 +27°C° 0 mm 5 mps 754 mmHg 52%
    17:00 +26°C° 0.1 mm 4 mps 754 mmHg 56%
    18:00 +25°C° 0.1 mm 3 mps 754 mmHg 61%
    19:00 +25°C° 0.1 mm 3 mps 754 mmHg 65%
    20:00 +23°C° 0 mm 2 mps 755 mmHg 69%
    21:00 +20°C° 0 mm 2 mps 755 mmHg 72%
    22:00 +19°C° 0 mm 2 mps 755 mmHg 76%
    23:00 +18°C° 0 mm 2 mps 756 mmHg 78%

    22 July, Monday

    Time Temperature Precipitation Wind Pressure Humidity
    00:00 +17°C° 0 mm 2 mps 756 mmHg 80%
    01:00 +17°C° 0 mm 2 mps 756 mmHg 82%
    02:00 +16°C° 0 mm 1 mps 756 mmHg 85%
    03:00 +16°C° 0 mm 1 mps 756 mmHg 87%
    04:00 +15°C° 0 mm 1 mps 756 mmHg 90%
    05:00 +16°C° 0 mm 1 mps 756 mmHg 85%
    06:00 +18°C° 0 mm 1 mps 756 mmHg 81%
    07:00 +19°C° 0 mm 1 mps 756 mmHg 77%
    08:00 +20°C° 0 mm 2 mps 756 mmHg 69%
    09:00 +21°C° 0 mm 2 mps 756 mmHg 62%
    10:00 +24°C° 0 mm 2 mps 756 mmHg 54%
    11:00 +25°C° 0 mm 2 mps 756 mmHg 50%
    12:00 +26°C° 0 mm 2 mps 756 mmHg 45%
    13:00 +27°C° 0 mm 2 mps 755 mmHg 40%
    14:00 +27°C° 0 mm 2 mps 755 mmHg 39%
    15:00 +27°C° 0 mm 3 mps 755 mmHg 37%
    16:00 +27°C° 0 mm 3 mps 755 mmHg 36%
    17:00 +26°C° 0 mm 2 mps 755 mmHg 41%
    18:00 +25°C° 0 mm 2 mps 755 mmHg 47%
    19:00 +24°C° 0 mm 2 mps 755 mmHg 52%
    20:00 +23°C° 0 mm 2 mps 755 mmHg 57%
    21:00 +20°C° 0 mm 2 mps 755 mmHg 61%
    22:00 +18°C° 0 mm 2 mps 756 mmHg 66%
    23:00 +18°C° 0 mm 2 mps 756 mmHg 70%
    Show more